QPF
0.06 0.05 0.04 0.03 0.02 0.01 0.01 0.01 0.02 0.01 0.01 0.01 0.01 0.00 0.00 0.00 0.00 0.00 0.00 0.00 0.00 0.01 0.01 0.02 0.03 0.04 0.03 0.03 0.03 0.03 0.03 0.04 0.05 0.05 0.06 0.06 0.07 0.06 0.04 0.03 0.03 0.02 0.02
0.07 0.08 0.04 0.03 0.02 0.02 0.01 0.01 0.00 0.01 0.02 0.01 0.01 0.01 0.00 0.00 0.00 0.00 0.00 0.00 0.00 0.01 0.01 0.01 0.03 0.04 0.04 0.05 0.04 0.04 0.04 0.04 0.04 0.05 0.06 0.06 0.07 0.08 0.08 0.06 0.04 0.02 0.02
0.08 0.09 0.07 0.03 0.03 0.03 0.03 0.02 0.00 0.00 0.00 0.01 0.01 0.01 0.01 0.01 0.01 0.01 0.01 0.01 0.01 0.01 0.01 0.02 0.03 0.04 0.04 0.04 0.05 0.05 0.05 0.04 0.04 0.04 0.06 0.08 0.09 0.08 0.08 0.08 0.07 0.05 0.03
0.06 0.06 0.08 0.06 0.04 0.04 0.05 0.04 0.01 0.00 0.00 0.00 0.00 0.00 0.00 0.01 0.01 0.01 0.01 0.01 0.01 0.01 0.01 0.02 0.03 0.03 0.04 0.04 0.05 0.06 0.07 0.05 0.04 0.04 0.05 0.07 0.08 0.10 0.10 0.10 0.09 0.08 0.06
0.06 0.06 0.06 0.07 0.06 0.05 0.04 0.04 0.02 0.02 0.01 0.01 0.00 0.00 0.00 0.00 0.01 0.01 0.01 0.01 0.01 0.01 0.01 0.02 0.03 0.03 0.03 0.04 0.05 0.06 0.06 0.07 0.06 0.05 0.04 0.04 0.04 0.05 0.07 0.08 0.09 0.09 0.08
0.08 0.07 0.06 0.08 0.07 0.07 0.06 0.03 0.02 0.02 0.02 0.02 0.01 0.01 0.00 0.00 0.00 0.01 0.01 0.01 0.01 0.01 0.01 0.02 0.02 0.02 0.02 0.03 0.04 0.05 0.06 0.07 0.07 0.06 0.06 0.05 0.04 0.04 0.05 0.07 0.08 0.09 0.10
0.08 0.10 0.07 0.07 0.11 0.10 0.09 0.07 0.03 0.02 0.02 0.01 0.01 0.00 0.00 0.00 0.00 0.00 0.00 0.01 0.01 0.01 0.02 0.02 0.02 0.02 0.02 0.03 0.03 0.03 0.04 0.06 0.06 0.06 0.06 0.06 0.05 0.04 0.05 0.06 0.07 0.08 0.10
0.05 0.08 0.09 0.06 0.06 0.10 0.11 0.11 0.08 0.05 0.03 0.02 0.01 0.01 0.01 0.01 0.01 0.00 0.00 0.00 0.01 0.01 0.01 0.02 0.02 0.02 0.02 0.03 0.03 0.03 0.04 0.05 0.05 0.06 0.06 0.05 0.05 0.04 0.04 0.06 0.07 0.08 0.08
0.03 0.03 0.04 0.05 0.04 0.04 0.06 0.08 0.08 0.08 0.06 0.04 0.03 0.03 0.02 0.01 0.01 0.01 0.01 0.01 0.01 0.01 0.01 0.01 0.02 0.02 0.02 0.02 0.02 0.03 0.04 0.04 0.05 0.06 0.06 0.06 0.05 0.05 0.06 0.06 0.07 0.07 0.07
0.01 0.02 0.02 0.02 0.02 0.02 0.02 0.03 0.04 0.05 0.03 0.02 0.02 0.01 0.02 0.01 0.02 0.02 0.01 0.01 0.01 0.01 0.01 0.01 0.01 0.01 0.02 0.02 0.02 0.03 0.04 0.04 0.05 0.06 0.06 0.06 0.06 0.06 0.06 0.06 0.06 0.07 0.08
0.00 0.01 0.01 0.01 0.01 0.01 0.01 0.01 0.02 0.03 0.03 0.02 0.01 0.01 0.01 0.01 0.01 0.02 0.02 0.01 0.01 0.01 0.01 0.01 0.01 0.01 0.01 0.01 0.01 0.02 0.04 0.05 0.05 0.06 0.06 0.07 0.07 0.06 0.07 0.07 0.08 0.08 0.08
0.00 0.00 0.00 0.00 0.00 0.00 0.00 0.00 0.01 0.01 0.02 0.02 0.01 0.01 0.01 0.01 0.01 0.01 0.01 0.01 0.01 0.01 0.01 0.02 0.02 0.01 0.01 0.01 0.01 0.02 0.02 0.03 0.04 0.04 0.05 0.06 0.06 0.06 0.07 0.08 0.08 0.09 0.09
0.00 0.00 0.00 0.00 0.00 0.00 0.00 0.00 0.00 0.00 0.01 0.01 0.01 0.01 0.01 0.01 0.01 0.01 0.02 0.02 0.02 0.01 0.01 0.02 0.02 0.01 0.01 0.01 0.01 0.02 0.02 0.02 0.02 0.03 0.04 0.04 0.04 0.05 0.05 0.06 0.08 0.08 0.10
0.00 0.00 0.00 0.00 0.00 0.00 0.00 0.00 0.00 0.00 0.00 0.00 0.01 0.01 0.01 0.01 0.01 0.01 0.02 0.02 0.02 0.02 0.02 0.02 0.02 0.02 0.02 0.02 0.02 0.02 0.02 0.02 0.02 0.02 0.03 0.03 0.03 0.03 0.04 0.05 0.06 0.06 0.07
0.00 0.00 0.00 0.00 0.00 0.00 0.00 0.00 0.00 0.00 0.00 0.00 0.00 0.00 0.01 0.01 0.01 0.01 0.01 0.02 0.03 0.03 0.03 0.02 0.02 0.02 0.02 0.02 0.02 0.02 0.02 0.03 0.03 0.03 0.03 0.03 0.03 0.04 0.04 0.03 0.03 0.04 0.04
0.00 0.00 0.00 0.00 0.00 0.00 0.00 0.00 0.00 0.00 0.00 0.00 0.00 0.00 0.00 0.00 0.00 0.01 0.01 0.02 0.02 0.03 0.02 0.01 0.01 0.01 0.01 0.02 0.02 0.02 0.02 0.02 0.02 0.02 0.02 0.02 0.02 0.03 0.03 0.03 0.03 0.03 0.04
0.00 0.00 0.00 0.00 0.00 0.00 0.00 0.00 0.00 0.00 0.00 0.00 0.00 0.00 0.00 0.00 0.00 0.00 0.00 0.01 0.01 0.01 0.01 0.01 0.00 0.01 0.01 0.01 0.01 0.01 0.01 0.01 0.01 0.02 0.02 0.02 0.01 0.01 0.01 0.02 0.02 0.02 0.03
0.00 0.00 0.00 0.00 0.00 0.00 0.00 0.00 0.00 0.00 0.00 0.00 0.00 0.00 0.00 0.00 0.00 0.00 0.00 0.00 0.00 0.01 0.01 0.01 0.00 0.00 0.01 0.01 0.01 0.01 0.02 0.02 0.02 0.02 0.01 0.01 0.01 0.01 0.01 0.01 0.01 0.01 0.02
0.00 0.00 0.00 0.00 0.00 0.00 0.00 0.00 0.00 0.00 0.00 0.00 0.00 0.00 0.00 0.00 0.00 0.00 0.00 0.00 0.01 0.01 0.01 0.01 0.01 0.00 0.00 0.01 0.01 0.01 0.02 0.02 0.02 0.02 0.02 0.02 0.02 0.02 0.02 0.01 0.01 0.01 0.01
0.00 0.00 0.00 0.00 0.00 0.00 0.00 0.00 0.00 0.00 0.00 0.00 0.00 0.00 0.00 0.00 0.00 0.00 0.00 0.00 0.00 0.01 0.01 0.02 0.01 0.01 0.00 0.01 0.01 0.01 0.01 0.02 0.02 0.02 0.02 0.02 0.02 0.02 0.02 0.02 0.02 0.01 0.01
0.00 0.00 0.00 0.00 0.00 0.00 0.00 0.00 0.00 0.00 0.00 0.00 0.00 0.00 0.00 0.00 0.00 0.00 0.00 0.00 0.01 0.01 0.01 0.01 0.01 0.01 0.00 0.00 0.01 0.01 0.01 0.01 0.01 0.02 0.02 0.02 0.02 0.02 0.01 0.02 0.02 0.02 0.01
0.00 0.00 0.00 0.00 0.00 0.00 0.00 0.00 0.00 0.00 0.00 0.00 0.00 0.00 0.00 0.00 0.00 0.00 0.00 0.00 0.01 0.01 0.01 0.01 0.01 0.01 0.01 0.01 0.01 0.01 0.01 0.01 0.01 0.01 0.01 0.02 0.01 0.02 0.01 0.01 0.01 0.02 0.01
0.00 0.00 0.00 0.00 0.00 0.00 0.00 0.00 0.00 0.00 0.00 0.00 0.00 0.00 0.00 0.00 0.00 0.00 0.00 0.00 0.00 0.01 0.01 0.01 0.01 0.01 0.01 0.01 0.01 0.01 0.01 0.01 0.00 0.01 0.01 0.02 0.02 0.01 0.01 0.01 0.02 0.01 0.01
0.00 0.00 0.00 0.00 0.00 0.00 0.00 0.00 0.00 0.00 0.00 0.00 0.00 0.00 0.00 0.00 0.00 0.01 0.00 0.01 0.01 0.01 0.01 0.01 0.01 0.01 0.01 0.01 0.02 0.02 0.01 0.01 0.01 0.01 0.01 0.02 0.01 0.01 0.01 0.01 0.01 0.01 0.01
0.00 0.00 0.00 0.00 0.00 0.00 0.00 0.00 0.00 0.00 0.00 0.00 0.00 0.00 0.00 0.00 0.01 0.01 0.01 0.01 0.01 0.02 0.02 0.02 0.01 0.01 0.01 0.02 0.02 0.02 0.03 0.03 0.02 0.01 0.01 0.03 0.02 0.01 0.01 0.01 0.01 0.01 0.01
0.00 0.00 0.00 0.00 0.00 0.00 0.00 0.00 0.00 0.00 0.00 0.00 0.00 0.00 0.01 0.01 0.01 0.01 0.01 0.01 0.01 0.01 0.01 0.01 0.01 0.01 0.01 0.02 0.02 0.03 0.04 0.04 0.03 0.03 0.02 0.03 0.03 0.03 0.02 0.02 0.01 0.01 0.01
MSLP
1018.76 1018.60 1018.42 1018.24 1018.06 1017.88 1017.70 1017.51 1017.30 1017.06 1016.79 1016.49 1016.19 1015.88 1015.59 1015.31 1015.06 1014.83 1014.60 1014.38 1014.15 1013.92 1013.68 1013.44 1013.24 1013.07 1012.97 1012.93 1012.96 1013.06 1013.21 1013.40 1013.60 1013.80 1013.99 1014.16 1014.30 1014.42 1014.52 1014.62 1014.71 1014.81 1014.92
1018.91 1018.72 1018.52 1018.34 1018.16 1018.00 1017.83 1017.64 1017.43 1017.17 1016.88 1016.56 1016.21 1015.86 1015.51 1015.18 1014.88 1014.60 1014.34 1014.09 1013.84 1013.58 1013.33 1013.07 1012.84 1012.63 1012.48 1012.38 1012.34 1012.37 1012.47 1012.61 1012.79 1012.99 1013.19 1013.38 1013.55 1013.70 1013.83 1013.94 1014.04 1014.13 1014.24
1019.03 1018.82 1018.61 1018.43 1018.26 1018.10 1017.93 1017.75 1017.53 1017.26 1016.95 1016.59 1016.20 1015.80 1015.41 1015.04 1014.70 1014.38 1014.10 1013.83 1013.57 1013.31 1013.05 1012.80 1012.55 1012.32 1012.11 1011.96 1011.85 1011.80 1011.82 1011.89 1012.02 1012.19 1012.38 1012.58 1012.77 1012.95 1013.11 1013.24 1013.36 1013.47 1013.58
1019.14 1018.92 1018.71 1018.53 1018.37 1018.22 1018.06 1017.86 1017.62 1017.33 1016.98 1016.58 1016.16 1015.72 1015.29 1014.88 1014.51 1014.17 1013.86 1013.59 1013.33 1013.09 1012.85 1012.60 1012.36 1012.12 1011.89 1011.68 1011.50 1011.38 1011.30 1011.29 1011.34 1011.45 1011.60 1011.77 1011.96 1012.15 1012.33 1012.49 1012.63 1012.77 1012.91
1019.27 1019.04 1018.85 1018.68 1018.53 1018.38 1018.20 1017.99 1017.72 1017.39 1017.00 1016.57 1016.11 1015.63 1015.17 1014.73 1014.32 1013.96 1013.65 1013.37 1013.12 1012.89 1012.67 1012.46 1012.23 1012.00 1011.77 1011.53 1011.30 1011.10 1010.94 1010.82 1010.77 1010.78 1010.86 1010.97 1011.13 1011.30 1011.48 1011.65 1011.82 1011.98 1012.14
1019.41 1019.20 1019.03 1018.87 1018.73 1018.57 1018.38 1018.14 1017.84 1017.47 1017.04 1016.57 1016.08 1015.57 1015.08 1014.61 1014.18 1013.80 1013.46 1013.17 1012.92 1012.71 1012.51 1012.33 1012.14 1011.94 1011.72 1011.47 1011.22 1010.95 1010.70 1010.49 1010.32 1010.21 1010.17 1010.19 1010.27 1010.39 1010.54 1010.70 1010.87 1011.04 1011.23
1019.57 1019.38 1019.23 1019.09 1018.95 1018.79 1018.58 1018.32 1017.98 1017.58 1017.13 1016.63 1016.11 1015.58 1015.07 1014.57 1014.11 1013.70 1013.33 1013.01 1012.75 1012.53 1012.35 1012.19 1012.04 1011.88 1011.70 1011.47 1011.20 1010.90 1010.58 1010.27 1009.97 1009.73 1009.55 1009.44 1009.40 1009.42 1009.50 1009.62 1009.76 1009.93 1010.12
1019.72 1019.56 1019.43 1019.31 1019.17 1019.01 1018.79 1018.51 1018.15 1017.74 1017.27 1016.76 1016.24 1015.71 1015.18 1014.66 1014.16 1013.71 1013.29 1012.92 1012.62 1012.37 1012.19 1012.05 1011.93 1011.82 1011.68 1011.49 1011.23 1010.92 1010.55 1010.15 1009.74 1009.35 1009.02 1008.75 1008.56 1008.45 1008.41 1008.45 1008.53 1008.66 1008.84
1019.85 1019.71 1019.60 1019.49 1019.36 1019.20 1018.97 1018.69 1018.34 1017.93 1017.48 1016.99 1016.49 1015.96 1015.43 1014.90 1014.37 1013.85 1013.37 1012.93 1012.56 1012.26 1012.05 1011.90 1011.81 1011.73 1011.64 1011.50 1011.28 1010.98 1010.58 1010.12 1009.61 1009.09 1008.60 1008.17 1007.81 1007.54 1007.36 1007.27 1007.27 1007.34 1007.48
1019.92 1019.80 1019.70 1019.60 1019.48 1019.32 1019.11 1018.84 1018.52 1018.15 1017.74 1017.31 1016.84 1016.35 1015.84 1015.29 1014.73 1014.15 1013.59 1013.07 1012.61 1012.24 1011.97 1011.80 1011.70 1011.66 1011.61 1011.52 1011.35 1011.07 1010.68 1010.18 1009.60 1008.98 1008.35 1007.76 1007.23 1006.79 1006.45 1006.22 1006.10 1006.08 1006.16
1019.91 1019.81 1019.71 1019.62 1019.51 1019.36 1019.18 1018.94 1018.67 1018.36 1018.03 1017.66 1017.26 1016.83 1016.34 1015.81 1015.22 1014.59 1013.96 1013.34 1012.79 1012.33 1011.99 1011.77 1011.66 1011.62 1011.60 1011.55 1011.43 1011.20 1010.83 1010.33 1009.72 1009.02 1008.29 1007.57 1006.89 1006.30 1005.80 1005.43 1005.18 1005.06 1005.07
1019.82 1019.72 1019.62 1019.53 1019.43 1019.31 1019.15 1018.97 1018.76 1018.53 1018.28 1018.01 1017.69 1017.33 1016.89 1016.38 1015.79 1015.13 1014.44 1013.75 1013.11 1012.56 1012.14 1011.86 1011.70 1011.65 1011.64 1011.63 1011.55 1011.36 1011.03 1010.56 1009.94 1009.22 1008.44 1007.63 1006.84 1006.12 1005.50 1004.99 1004.62 1004.40 1004.33
1019.63 1019.52 1019.43 1019.34 1019.25 1019.15 1019.03 1018.90 1018.77 1018.62 1018.46 1018.28 1018.07 1017.78 1017.42 1016.95 1016.38 1015.72 1014.99 1014.25 1013.55 1012.93 1012.43 1012.08 1011.87 1011.78 1011.76 1011.76 1011.70 1011.56 1011.28 1010.85 1010.27 1009.57 1008.77 1007.93 1007.09 1006.30 1005.58 1004.97 1004.51 1004.20 1004.05
1019.34 1019.24 1019.14 1019.05 1018.97 1018.89 1018.81 1018.73 1018.66 1018.60 1018.53 1018.44 1018.31 1018.12 1017.83 1017.43 1016.91 1016.27 1015.56 1014.81 1014.07 1013.41 1012.85 1012.43 1012.16 1012.02 1011.96 1011.94 1011.90 1011.78 1011.55 1011.18 1010.66 1010.02 1009.27 1008.45 1007.61 1006.79 1006.03 1005.37 1004.84 1004.46 1004.25
1018.98 1018.88 1018.78 1018.70 1018.63 1018.56 1018.51 1018.47 1018.45 1018.44 1018.44 1018.43 1018.38 1018.27 1018.07 1017.75 1017.31 1016.74 1016.08 1015.36 1014.63 1013.95 1013.36 1012.89 1012.56 1012.35 1012.24 1012.17 1012.12 1012.01 1011.82 1011.52 1011.08 1010.52 1009.85 1009.11 1008.33 1007.54 1006.79 1006.12 1005.57 1005.15 1004.91
1018.57 1018.47 1018.38 1018.30 1018.23 1018.18 1018.14 1018.12 1018.12 1018.15 1018.20 1018.24 1018.26 1018.22 1018.11 1017.88 1017.54 1017.07 1016.49 1015.85 1015.17 1014.51 1013.91 1013.41 1013.01 1012.74 1012.56 1012.44 1012.34 1012.24 1012.07 1011.83 1011.48 1011.03 1010.48 1009.84 1009.16 1008.45 1007.76 1007.12 1006.58 1006.16 1005.90
1018.12 1018.04 1017.95 1017.88 1017.81 1017.76 1017.72 1017.70 1017.71 1017.75 1017.80 1017.88 1017.94 1017.96 1017.92 1017.80 1017.56 1017.21 1016.75 1016.21 1015.62 1015.01 1014.44 1013.92 1013.48 1013.15 1012.89 1012.71 1012.57 1012.44 1012.30 1012.10 1011.84 1011.50 1011.08 1010.58 1010.02 1009.43 1008.82 1008.25 1007.75 1007.36 1007.11
1017.68 1017.61 1017.53 1017.46 1017.40 1017.33 1017.28 1017.25 1017.24 1017.25 1017.30 1017.38 1017.45 1017.52 1017.55 1017.51 1017.39 1017.16 1016.84 1016.42 1015.93 1015.41 1014.88 1014.37 1013.92 1013.53 1013.22 1012.97 1012.78 1012.63 1012.49 1012.34 1012.16 1011.93 1011.63 1011.26 1010.84 1010.37 1009.87 1009.39 1008.95 1008.60 1008.36
1017.27 1017.21 1017.14 1017.07 1017.00 1016.92 1016.84 1016.78 1016.73 1016.72 1016.73 1016.79 1016.86 1016.95 1017.03 1017.06 1017.04 1016.93 1016.74 1016.45 1016.08 1015.66 1015.19 1014.72 1014.27 1013.86 1013.51 1013.22 1012.99 1012.81 1012.68 1012.56 1012.45 1012.30 1012.12 1011.88 1011.58 1011.22 1010.84 1010.44 1010.07 1009.76 1009.55
1016.90 1016.85 1016.79 1016.72 1016.63 1016.53 1016.42 1016.32 1016.23 1016.16 1016.14 1016.16 1016.22 1016.31 1016.41 1016.50 1016.55 1016.55 1016.47 1016.30 1016.05 1015.73 1015.35 1014.94 1014.52 1014.12 1013.75 1013.44 1013.19 1013.01 1012.88 1012.79 1012.72 1012.65 1012.55 1012.41 1012.22 1011.97 1011.67 1011.35 1011.05 1010.78 1010.60
1016.59 1016.55 1016.48 1016.41 1016.31 1016.18 1016.04 1015.89 1015.75 1015.64 1015.56 1015.54 1015.56 1015.64 1015.74 1015.86 1015.97 1016.04 1016.05 1015.99 1015.85 1015.63 1015.35 1015.01 1014.65 1014.28 1013.94 1013.64 1013.40 1013.22 1013.10 1013.04 1013.00 1012.98 1012.95 1012.88 1012.76 1012.59 1012.36 1012.11 1011.85 1011.62 1011.46
1016.35 1016.31 1016.24 1016.15 1016.03 1015.88 1015.70 1015.51 1015.32 1015.15 1015.03 1014.96 1014.95 1014.99 1015.08 1015.21 1015.34 1015.45 1015.52 1015.54 1015.49 1015.37 1015.19 1014.94 1014.66 1014.37 1014.08 1013.82 1013.61 1013.46 1013.36 1013.31 1013.30 1013.31 1013.31 1013.28 1013.21 1013.09 1012.92 1012.71 1012.49 1012.29 1012.13
1016.19 1016.13 1016.06 1015.95 1015.80 1015.62 1015.41 1015.18 1014.94 1014.73 1014.56 1014.44 1014.39 1014.39 1014.46 1014.56 1014.68 1014.81 1014.92 1014.99 1015.02 1014.98 1014.89 1014.75 1014.57 1014.37 1014.17 1013.98 1013.82 1013.71 1013.64 1013.61 1013.61 1013.63 1013.64 1013.63 1013.58 1013.49 1013.35 1013.18 1012.99 1012.80 1012.65
1016.09 1016.03 1015.94 1015.81 1015.63 1015.42 1015.17 1014.90 1014.63 1014.38 1014.17 1014.00 1013.90 1013.86 1013.88 1013.94 1014.04 1014.16 1014.27 1014.37 1014.45 1014.49 1014.49 1014.46 1014.39 1014.30 1014.20 1014.10 1014.01 1013.95 1013.91 1013.90 1013.90 1013.92 1013.93 1013.92 1013.88 1013.80 1013.68 1013.53 1013.36 1013.20 1013.05
1016.05 1015.98 1015.87 1015.71 1015.51 1015.26 1014.98 1014.67 1014.37 1014.08 1013.83 1013.63 1013.48 1013.39 1013.35 1013.37 1013.42 1013.51 1013.61 1013.72 1013.84 1013.94 1014.02 1014.09 1014.14 1014.16 1014.17 1014.17 1014.16 1014.16 1014.15 1014.15 1014.15 1014.16 1014.15 1014.13 1014.09 1014.02 1013.92 1013.80 1013.66 1013.51 1013.37
1016.05 1015.97 1015.83 1015.65 1015.41 1015.13 1014.81 1014.48 1014.15 1013.83 1013.55 1013.30 1013.11 1012.97 1012.88 1012.84 1012.84 1012.88 1012.96 1013.07 1013.21 1013.36 1013.52 1013.68 1013.83 1013.97 1014.09 1014.18 1014.25 1014.30 1014.32 1014.34 1014.34 1014.33 1014.31 1014.28 1014.23 1014.17 1014.09 1014.00 1013.89 1013.77 1013.65
Thickness
5668 5668 5669 5670 5670 5670 5670 5670 5670 5670 5669 5669 5669 5668 5668 5667 5666 5666 5666 5666 5665 5665 5665 5665 5666 5665 5665 5664 5663 5661 5660 5659 5658 5657 5657 5656 5655 5654 5654 5654 5653 5652 5651
5662 5662 5663 5664 5664 5664 5664 5664 5663 5663 5663 5663 5662 5662 5662 5661 5661 5660 5660 5659 5659 5659 5659 5659 5659 5659 5658 5657 5657 5655 5654 5653 5652 5651 5651 5650 5650 5649 5648 5648 5647 5647 5646
5656 5656 5656 5657 5657 5658 5658 5657 5657 5657 5657 5656 5656 5656 5656 5655 5654 5654 5653 5653 5652 5652 5651 5651 5651 5651 5651 5650 5650 5649 5648 5647 5646 5645 5645 5644 5644 5644 5643 5643 5642 5641 5640
5650 5650 5650 5650 5650 5651 5651 5651 5650 5650 5649 5649 5649 5649 5649 5648 5648 5647 5647 5646 5645 5644 5643 5643 5642 5642 5642 5642 5641 5641 5641 5640 5639 5639 5638 5638 5637 5637 5637 5637 5636 5636 5634
5643 5643 5643 5642 5643 5643 5644 5643 5643 5642 5642 5642 5642 5642 5642 5641 5641 5640 5639 5638 5637 5636 5635 5634 5634 5633 5633 5632 5632 5632 5632 5632 5632 5632 5631 5631 5630 5630 5630 5630 5630 5630 5629
5635 5635 5635 5635 5635 5636 5636 5636 5635 5635 5634 5634 5635 5635 5635 5634 5634 5633 5632 5630 5629 5628 5626 5625 5625 5624 5623 5623 5623 5623 5623 5624 5623 5623 5623 5622 5622 5622 5622 5623 5623 5623 5623
5627 5627 5627 5627 5627 5627 5627 5627 5627 5627 5626 5626 5625 5626 5627 5627 5626 5625 5623 5622 5620 5619 5618 5617 5615 5615 5614 5613 5613 5613 5613 5614 5614 5614 5614 5613 5614 5614 5614 5614 5615 5616 5616
5618 5618 5618 5618 5618 5618 5618 5618 5618 5617 5617 5616 5615 5615 5616 5617 5617 5617 5615 5613 5611 5610 5609 5608 5606 5605 5604 5604 5603 5603 5604 5604 5604 5605 5605 5604 5604 5605 5605 5606 5607 5608 5608
5609 5610 5610 5609 5609 5609 5609 5609 5608 5608 5607 5606 5605 5604 5604 5604 5604 5606 5605 5603 5601 5599 5598 5598 5597 5596 5595 5594 5594 5594 5594 5594 5595 5596 5596 5596 5596 5596 5596 5597 5598 5599 5600
5602 5602 5601 5601 5600 5600 5600 5599 5599 5598 5598 5597 5596 5595 5593 5593 5592 5594 5594 5592 5590 5589 5588 5587 5586 5586 5585 5584 5584 5585 5585 5586 5586 5587 5587 5587 5587 5587 5588 5589 5589 5590 5591
5593 5593 5593 5592 5592 5591 5591 5590 5589 5589 5588 5588 5587 5586 5584 5583 5581 5581 5583 5583 5580 5579 5578 5577 5576 5575 5575 5574 5574 5575 5576 5576 5577 5578 5578 5577 5578 5578 5579 5579 5580 5580 5581
5585 5585 5584 5584 5583 5583 5582 5582 5581 5580 5579 5578 5577 5576 5575 5574 5572 5570 5571 5572 5571 5570 5568 5567 5566 5566 5565 5565 5564 5565 5566 5566 5567 5567 5567 5567 5567 5567 5568 5569 5570 5571 5572
5576 5576 5576 5575 5575 5575 5574 5573 5573 5571 5570 5569 5568 5567 5566 5564 5563 5562 5561 5562 5561 5561 5560 5558 5557 5556 5555 5555 5554 5555 5555 5556 5556 5556 5556 5557 5557 5557 5557 5558 5559 5560 5561
5567 5568 5567 5567 5567 5567 5566 5566 5565 5563 5562 5560 5559 5558 5557 5556 5554 5552 5551 5551 5552 5552 5550 5549 5548 5547 5546 5545 5544 5544 5545 5545 5545 5545 5546 5546 5546 5546 5546 5547 5548 5549 5550
5560 5560 5559 5559 5559 5558 5558 5557 5556 5555 5554 5552 5551 5550 5549 5548 5546 5544 5542 5540 5540 5542 5543 5540 5537 5537 5535 5534 5534 5533 5533 5534 5534 5534 5535 5535 5534 5535 5536 5536 5537 5538 5539
5552 5551 5551 5551 5550 5550 5549 5549 5547 5546 5545 5544 5543 5541 5540 5538 5536 5535 5533 5531 5530 5529 5530 5531 5527 5525 5524 5523 5522 5522 5522 5522 5522 5523 5524 5523 5523 5524 5524 5524 5525 5526 5528
5544 5544 5543 5543 5542 5541 5540 5539 5538 5538 5536 5535 5533 5532 5530 5529 5527 5525 5524 5522 5520 5518 5518 5519 5515 5514 5512 5511 5511 5511 5511 5511 5511 5511 5512 5512 5512 5512 5512 5513 5513 5514 5515
5536 5536 5535 5535 5534 5533 5532 5530 5529 5528 5527 5525 5524 5522 5521 5519 5517 5515 5513 5511 5509 5507 5506 5506 5505 5502 5501 5500 5500 5499 5500 5499 5499 5500 5500 5500 5501 5500 5500 5501 5501 5502 5503
5529 5528 5527 5526 5526 5525 5523 5522 5521 5519 5518 5516 5515 5513 5512 5509 5508 5505 5503 5501 5499 5498 5495 5494 5494 5492 5490 5489 5488 5488 5488 5488 5488 5488 5488 5488 5488 5488 5488 5488 5489 5490 5490
5521 5520 5519 5519 5518 5516 5515 5514 5512 5510 5509 5507 5506 5504 5502 5500 5498 5496 5494 5491 5489 5487 5485 5484 5484 5482 5480 5478 5476 5476 5477 5476 5476 5477 5476 5476 5476 5476 5476 5476 5477 5478 5478
5513 5512 5511 5510 5509 5507 5507 5505 5504 5502 5500 5498 5496 5494 5493 5491 5489 5487 5485 5482 5480 5477 5475 5474 5473 5471 5470 5467 5466 5464 5464 5464 5464 5463 5463 5464 5464 5464 5463 5464 5464 5465 5465
5504 5503 5502 5501 5500 5500 5499 5498 5496 5493 5491 5489 5487 5485 5483 5481 5479 5478 5476 5473 5471 5468 5466 5464 5462 5461 5459 5457 5455 5453 5452 5451 5452 5451 5450 5451 5451 5451 5451 5451 5451 5452 5452
5496 5495 5494 5493 5492 5491 5490 5489 5488 5485 5482 5480 5477 5475 5474 5472 5470 5467 5466 5464 5461 5459 5457 5454 5452 5450 5448 5446 5443 5442 5440 5438 5438 5438 5436 5439 5438 5438 5438 5438 5438 5439 5439
5487 5486 5485 5484 5483 5482 5481 5480 5478 5475 5472 5470 5467 5465 5463 5461 5459 5457 5455 5453 5450 5448 5446 5444 5442 5440 5438 5436 5433 5432 5430 5427 5426 5425 5423 5424 5424 5424 5426 5425 5425 5426 5426
5478 5477 5476 5475 5473 5473 5472 5470 5468 5465 5462 5460 5458 5456 5453 5452 5451 5449 5445 5442 5440 5437 5435 5433 5432 5430 5427 5425 5423 5420 5418 5416 5416 5414 5411 5410 5410 5410 5412 5413 5412 5412 5412
5468 5467 5466 5465 5463 5462 5461 5460 5458 5454 5452 5450 5448 5446 5444 5442 5441 5439 5435 5432 5429 5427 5424 5422 5420 5418 5416 5414 5412 5410 5407 5405 5403 5402 5400 5398 5397 5396 5398 5401 5400 5399 5399